Allentown, PA

1:45 AM EST on February 20, 2017 (GMT -0500)
Allentown

Weather History for KXLL - November, 2013

Change the Weather History Date:

Sunday, November 17, 2013

  Actual Average (KABE) Record (KABE)
Temperature  
Mean Temperature 56 °F -  
Max Temperature 62 °F 50 °F 71 °F (1928)
Min Temperature 50 °F 32 °F 14 °F (1933)
Degree Days  
Heating Degree Days 9    
Growing Degree Days 6 (Base 50)    
Moisture  
Dew Point 51 °F    
Average Humidity 80    
Maximum Humidity 94    
Minimum Humidity 68    
Precipitation  
Precipitation 0.00 in - - ()
Sea Level Pressure  
Sea Level Pressure 30.07 in    
Wind  
Wind Speed 3 mph (South)    
Max Wind Speed 10 mph    
Max Gust Speed 17 mph    
Visibility 8 miles    
Events Rain    
Averages and records for this station are not official NWS values.
T = Trace of Precipitation, MM = Missing Value Source: NWS Daily Summary

Daily Weather History Graph

Daily Weather History Graph

Search for Another Location

Airport or City:

Trip Planner

Search our weather history database for the weather conditions in past years. The results will help you decide how hot, cold, wet, or windy it might be!

Date:

Astronomy

Nov. 17, 2013 Rise Set
Actual Time 6:51 AM EST 4:42 PM EST
Civil Twilight 6:21 AM EST 5:11 PM EST
Nautical Twilight 5:48 AM EST 5:45 PM EST
Astronomical Twilight 5:16 AM EST 6:17 PM EST
Moon 4:57 PM EST (11/17) 6:42 AM EST (11/17)
Length of Visible Light 10h 50m
Length of Day
9h 51m
Full, 100% of the Moon is Illuminated
Nov 17
Full
Nov 25
Last Quarter
Dec 2
New
Dec 9
First Quarter
Dec 17
Full

Hourly Weather History & Observations

Time (EST) Temp. Dew Point Humidity Pressure Visibility Wind Dir Wind Speed Gust Speed Precip Events Conditions
12:15 AM 50.0 °F 46.4 °F 87% 30.26 in 5.0 mi ESE 3.5 mph - N/A   Overcast
12:35 AM 50.0 °F 46.4 °F 87% 30.26 in 5.0 mi Calm Calm - N/A   Overcast
12:55 AM 50.0 °F 46.4 °F 87% 30.26 in 5.0 mi Calm Calm - N/A   Overcast
1:15 AM 50.0 °F 46.4 °F 87% 30.24 in 4.0 mi East 3.5 mph - N/A   Overcast
1:35 AM 50.0 °F 46.4 °F 87% 30.24 in 3.0 mi Calm Calm - N/A   Overcast
1:55 AM 50.0 °F 46.4 °F 87% 30.25 in 4.0 mi Calm Calm - N/A   Overcast
2:15 AM 50.0 °F 46.4 °F 87% 30.25 in 3.0 mi SE 3.5 mph - N/A   Overcast
2:35 AM 50.0 °F 46.4 °F 87% 30.24 in 3.0 mi Calm Calm - N/A   Overcast
2:55 AM 50.0 °F 46.4 °F 87% 30.24 in 3.0 mi Calm Calm - N/A   Overcast
3:15 AM 50.0 °F 46.4 °F 87% 30.23 in 4.0 mi Calm Calm - N/A   Overcast
3:35 AM 50.0 °F 46.4 °F 87% 30.22 in 4.0 mi Calm Calm - N/A   Overcast
3:55 AM 50.0 °F 46.4 °F 87% 30.22 in 3.0 mi NNW 4.6 mph - N/A   Overcast
4:15 AM 50.0 °F 46.4 °F 87% 30.22 in 3.0 mi Calm Calm - N/A   Overcast
4:35 AM 50.0 °F 46.4 °F 87% 30.21 in 4.0 mi Calm Calm - N/A   Overcast
4:55 AM 50.0 °F 46.4 °F 87% 30.20 in 4.0 mi Calm Calm - N/A   Overcast
5:15 AM 50.0 °F 46.4 °F 87% 30.20 in 4.0 mi Calm Calm - N/A   Overcast
5:35 AM 51.8 °F 46.4 °F 82% 30.20 in 5.0 mi Calm Calm - N/A   Overcast
5:55 AM 51.8 °F 48.2 °F 88% 30.19 in 7.0 mi ENE 3.5 mph - N/A   Overcast
6:15 AM 51.8 °F 48.2 °F 88% 30.18 in 7.0 mi Calm Calm - N/A   Overcast
6:35 AM 51.8 °F 48.2 °F 88% 30.18 in 7.0 mi East 3.5 mph - N/A   Overcast
6:55 AM 51.8 °F 50.0 °F 94% 30.18 in 7.0 mi Calm Calm - N/A   Overcast
7:15 AM 51.8 °F 50.0 °F 94% 30.19 in 5.0 mi Calm Calm - N/A   Overcast
7:35 AM 51.8 °F 48.2 °F 88% 30.19 in 5.0 mi Calm Calm - N/A   Overcast
7:55 AM 51.8 °F 50.0 °F 94% 30.19 in 5.0 mi Calm Calm - N/A   Overcast
8:15 AM 51.8 °F 50.0 °F 94% 30.19 in 5.0 mi WNW 3.5 mph - N/A   Overcast
8:35 AM 51.8 °F 48.2 °F 88% 30.19 in 4.0 mi Calm Calm - N/A   Overcast
8:55 AM 51.8 °F 50.0 °F 94% 30.19 in 4.0 mi South 3.5 mph - N/A   Overcast
9:15 AM 53.6 °F 50.0 °F 88% 30.20 in 4.0 mi SSW 5.8 mph - N/A   Overcast
9:35 AM 53.6 °F 50.0 °F 88% 30.19 in 4.0 mi South 5.8 mph - N/A   Overcast
9:55 AM 55.4 °F 50.0 °F 82% 30.18 in 4.0 mi South 5.8 mph - N/A   Haze
10:15 AM 55.4 °F 51.8 °F 88% 30.18 in 5.0 mi Calm Calm - N/A   Haze
10:35 AM 55.4 °F 51.8 °F 88% 30.17 in 5.0 mi South 5.8 mph - N/A   Haze
10:55 AM 59.0 °F 51.8 °F 77% 30.16 in 7.0 mi SSE 5.8 mph - N/A   Overcast
11:15 AM 59.0 °F 51.8 °F 77% 30.15 in 10.0 mi SSE 4.6 mph - N/A   Overcast
11:35 AM 59.0 °F 51.8 °F 77% 30.13 in 10.0 mi South 6.9 mph - N/A   Mostly Cloudy
11:55 AM 60.8 °F 51.8 °F 72% 30.12 in 10.0 mi SSW 4.6 mph - N/A   Mostly Cloudy
12:15 PM 60.8 °F 51.8 °F 72% 30.11 in 10.0 mi SW 6.9 mph - N/A   Overcast
12:35 PM 60.8 °F 51.8 °F 72% 30.11 in 10.0 mi SW 9.2 mph - N/A   Overcast
12:55 PM 60.8 °F 51.8 °F 72% 30.09 in 10.0 mi South 6.9 mph - N/A   Overcast
1:15 PM 62.6 °F 51.8 °F 68% 30.07 in 10.0 mi SSE 6.9 mph - N/A   Mostly Cloudy
1:35 PM 62.6 °F 51.8 °F 68% 30.07 in 10.0 mi SSW 6.9 mph - N/A   Mostly Cloudy
1:55 PM 62.6 °F 51.8 °F 68% 30.06 in 10.0 mi SSW 8.1 mph - N/A   Overcast
2:15 PM 62.6 °F 51.8 °F 68% 30.05 in 10.0 mi SSW 8.1 mph - N/A   Mostly Cloudy
2:35 PM 62.6 °F 51.8 °F 68% 30.04 in 10.0 mi SSW 5.8 mph - N/A   Scattered Clouds
2:55 PM 62.6 °F 51.8 °F 68% 30.03 in 10.0 mi South 6.9 mph - N/A   Mostly Cloudy
3:15 PM 62.6 °F 51.8 °F 68% 30.03 in 10.0 mi South 5.8 mph - N/A   Overcast
3:35 PM 62.6 °F 51.8 °F 68% 30.02 in 10.0 mi South 4.6 mph - N/A   Overcast
3:55 PM 62.6 °F 51.8 °F 68% 30.01 in 10.0 mi South 3.5 mph - N/A   Overcast
4:15 PM 62.6 °F 51.8 °F 68% 29.99 in 10.0 mi South 3.5 mph - N/A   Overcast
4:35 PM 62.6 °F 51.8 °F 68% 29.99 in 10.0 mi Calm Calm - N/A   Overcast
4:55 PM 60.8 °F 51.8 °F 72% 29.98 in 10.0 mi SE 3.5 mph - N/A   Scattered Clouds
5:15 PM 62.6 °F 51.8 °F 68% 29.97 in 10.0 mi SSE 8.1 mph - N/A   Clear
5:35 PM 60.8 °F 51.8 °F 72% 29.97 in 10.0 mi South 4.6 mph - N/A   Clear
5:55 PM 60.8 °F 51.8 °F 72% 29.97 in 10.0 mi South 4.6 mph - N/A   Clear
6:15 PM 60.8 °F 51.8 °F 72% 29.96 in 10.0 mi SSE 8.1 mph - N/A   Clear
6:35 PM 60.8 °F 51.8 °F 72% 29.94 in 10.0 mi South 8.1 mph - N/A   Clear
6:55 PM 60.8 °F 53.6 °F 77% 29.93 in 10.0 mi South 6.9 mph 16.1 mph N/A   Clear
7:15 PM 60.8 °F 53.6 °F 77% 29.92 in 10.0 mi SSE 9.2 mph - N/A   Clear
7:35 PM 60.8 °F 53.6 °F 77% 29.92 in 10.0 mi South 9.2 mph - N/A   Scattered Clouds
7:55 PM 60.8 °F 53.6 °F 77% 29.91 in 10.0 mi South 9.2 mph - N/A   Mostly Cloudy
8:15 PM 60.8 °F 53.6 °F 77% 29.90 in 10.0 mi South 5.8 mph - N/A   Overcast
8:35 PM 60.8 °F 53.6 °F 77% 29.89 in 10.0 mi South 5.8 mph - N/A   Overcast
8:55 PM 60.8 °F 53.6 °F 77% 29.88 in 10.0 mi South 5.8 mph - N/A   Overcast
9:15 PM 60.8 °F 55.4 °F 82% 29.87 in 10.0 mi South 8.1 mph - N/A   Overcast
9:35 PM 60.8 °F 55.4 °F 82% 29.85 in 10.0 mi South 8.1 mph - N/A   Overcast
9:55 PM 60.8 °F 55.4 °F 82% 29.84 in 10.0 mi South 10.4 mph 16.1 mph N/A   Overcast
10:15 PM 60.8 °F 55.4 °F 82% 29.81 in 10.0 mi South 9.2 mph - N/A   Overcast
10:35 PM 60.8 °F 55.4 °F 82% 29.81 in 10.0 mi South 9.2 mph - N/A   Overcast
10:55 PM 60.8 °F 55.4 °F 82% 29.80 in 10.0 mi SSW 8.1 mph 16.1 mph N/A Rain Light Rain
11:15 PM 60.8 °F 55.4 °F 82% 29.78 in 10.0 mi SSW 5.8 mph - N/A Rain Light Rain
11:35 PM 60.8 °F 55.4 °F 82% 29.77 in 10.0 mi South 10.4 mph 17.3 mph N/A   Overcast
11:55 PM 60.8 °F 55.4 °F 82% 29.74 in 10.0 mi South 8.1 mph 16.1 mph N/A   Drizzle